Location: Celina Division
(33.3022°N, 96.7580°W)
Time: 03:28:02
(UTC+00:00)

NOAA 18 - Pass Details

Date: 05 April 2023
Orbit: 838 x 860 km, 98.9° (Epoch: 07 June)

Event Time Altitude Azimuth Distance (km) Brightness Sun altitude
Exits shadow 04:59:35 14° 333° (NNW) 2,222 7.9 -45.3°
Drops below altitude 10° 05:00:20 10° 336° (NNW) 2,501 8.2 -45.3°
Sets 05:02:47 0° 341° (NNW) 3,441 9.1 -45.6°
